Location: Eitze
(52.9840°N, 9.6894°E)
Time: 00:38:48
(UTC+00:00)

SeaSat 1 - Pass Details

Date: 19 May 2025
Orbit: 738 x 740 km, 108.0° (Epoch: 23 June)

Event Time Altitude Azimuth Distance (km) Brightness Sun altitude
Exits shadow 19:57:10 - 115° (ESE) 2,706 4.7 -5.2°
Reaches altitude 10° 19:58:22 10° 110° (ESE) 2,250 4.4 -5.3°
Maximum altitude 20:02:50 37° 45° (NE) 1,156 3.5 -5.8°
Drops below altitude 10° 20:07:18 10° 339° (NNW) 2,262 6.2 -6.3°
Sets 20:09:42 0° 331° (NNW) 3,189 7.6 -6.5°
